Regional Weather Roundup
Issued by NWS

Home | Current Version | Previous Version | Text Only | Print | Product List | Glossary On
Versions: 1 2 3 4 5 6 7 8 9 10 11 12 13 14 15 16 17 18 19 20 21 22 23 24 25 26 27 28 29 30 31 32 33 34 35 36 37 38 39 40 41 42 43 44 45 46 47 48 49 50
000
ASUS42 KFFC 161403
RWRGA
WEATHER ROUNDUP FOR GEORGIA
NATIONAL WEATHER SERVICE PEACHTREE CITY GA
1000 AM EDT TUE SEP 16 2014

NOTE: "FAIR" INDICATES FEW OR NO CLOUDS BELOW 12,000 FEET WITH NO
SIGNIFICANT WEATHER AND/OR OBSTRUCTIONS TO VISIBILITY.

* = USE WITH CAUTION. THE STATIONS MARKED WITH AN ASTERISK MAY NOT
REPORT WEATHER SUCH AS PRECIPITATION, FOG, OR THUNDER AND ARE NOT
QUALITY CONTROLLED BY NWS.

THE REMARK "TC" DENOTES TEMPERATURE READING IN DEGREES CELSIUS.

GAZ001>058-161500-
NORTH GEORGIA

CITY           SKY/WX    TMP DP  RH WIND       PRES   REMARKS
ATLANTA        PTSUNNY   75  71  87 NW7       30.10S
ATHENS         MOSUNNY   76  71  85 VRB5      30.10R
CHAMBLEE       MOSUNNY   75  70  84 NW7       30.11S HAZE
PEACHTREE CITY CLOUDY    74  72  93 NW3       30.11S FOG
ROME           MOSUNNY   76  71  85 N3        30.10F
WEST ATLANTA   PTSUNNY   75  71  87 NW9       30.11S
GAINESVILLE      N/A     75  70  84 NW9       30.13S
CARTERSVILLE   CLOUDY    73  71  93 CALM      30.11S FOG


CITY           SKY/WX    TMP DP  RH WIND       PRES   REMARKS
DALTON*        PTSUNNY   73  72  94 CALM      30.11S FOG
LAWRENCEVILLE* PTSUNNY   73  66  78 W5        30.10F FOG
MARIETTA       CLOUDY    75  72  89 NW7       30.12R FOG
KENNESAW*      CLOUDY    73  68  83 NW6       30.13R FOG
$$

GAZ059>098-102>109-161500-
CENTRAL GEORGIA

CITY           SKY/WX    TMP DP  RH WIND       PRES   REMARKS
AUGUSTA-BUSH   CLOUDY    76  72  87 W3        30.07R
AUGUSTA-DANIEL CLOUDY    76  72  87 CALM      30.08R
COLUMBUS       PTSUNNY   77  72  84 E5        30.08R
MACON          CLOUDY    76  73  91 W5        30.09R
ROBINS AFB     CLOUDY    76  71  85 SW5       30.09R


CITY           SKY/WX    TMP DP  RH WIND       PRES   REMARKS
LAGRANGE*      CLOUDY    77  76  99 NE3       30.10S FOG
SYLVANIA*      PTSUNNY   77  76  96 CALM      30.08S
$$

GAZ099>101-110>166-161500-
SOUTH GEORGIA

CITY           SKY/WX    TMP DP  RH WIND       PRES   REMARKS
SAVANNAH       CLOUDY    79  73  82 N5        30.07S
VALDOSTA       PTSUNNY   75  73  93 CALM      30.06F THUNDER
ALMA           CLOUDY    76  73  91 NW5       30.06F
ST SIMONS      CLOUDY    76  73  91 NW6       30.07S
FT STEWART     CLOUDY    77  72  86 VRB1      30.06R
ALBANY         CLOUDY    79  74  84 CALM      30.08F
HUNTER AFB     CLOUDY    77  75  94 W3        30.05S
MOODY AFB      PTSUNNY   76  74  94 N2        30.06F
BRUNSWICK      CLOUDY    75  72  88 W3        30.08S


CITY           SKY/WX    TMP DP  RH WIND       PRES   REMARKS
BAINBRIDGE*    CLOUDY    81  77  89 CALM      30.07F
MOULTRIE*      CLOUDY    79  77  94 N3        30.08S
VIDALIA*       CLOUDY    73  73 100 CALM      30.09R
WAYCROSS*      CLOUDY    78  77  96 CALM      30.06F
DOUGLAS*       CLOUDY    79  73  83 CALM      30.08F
$$


USA.gov is the U.S. government's official web portal to all federal, state and local government web resources and services.